Weather History for KAVL - March, 2007

Change the Weather History Date:

Wednesday, March 14, 2007

  Actual Average Record
Temperature  
Mean Temperature 62 °F 46 °F  
Max Temperature 75 °F 58 °F 82 °F (1973)
Min Temperature 48 °F 35 °F 8 °F (1993)
Degree Days  
Heating Degree Days 3 18  
Month to date heating degree days 230 280  
Since 1 July heating degree days 3426 3497  
Cooling Degree Days 0 0  
Month to date cooling degree days 0 0  
Year to date cooling degree days 0 0  
Growing Degree Days 12 (Base 50)    
Moisture  
Dew Point 44 °F    
Average Humidity 58    
Maximum Humidity 86    
Minimum Humidity 29    
Precipitation  
Precipitation 0.01 in 0.13 in 1.41 in (1946)
Month to date precipitation 2.41 1.73  
Year to date precipitation 7.21 9.16  
Snow  
Snow 0.00 in 0.10 in 2.00 in (1924)
Month to date snowfall T 1.0  
Since 1 July snowfall 1.9 8.3  
Snow Depth -    
Sea Level Pressure  
Sea Level Pressure 30.10 in    
Wind  
Wind Speed 4 mph (SSW)    
Max Wind Speed 21 mph    
Max Gust Speed 29 mph    
Visibility 9 miles    
Events      
T = Trace of Precipitation, MM = Missing Value Source: NWS Daily Summary

Daily Weather History Graph

Daily Weather History Graph

Search for Another Location

Airport or City:

Trip Planner

Search our weather history database for the weather conditions in past years. The results will help you decide how hot, cold, wet, or windy it might be!

Date:

Astronomy

Mar. 14, 2007 Rise Set
Actual Time 7:42 AM EDT 7:36 PM EDT
Civil Twilight 7:17 AM EDT 8:02 PM EDT
Nautical Twilight 6:47 AM EDT 8:31 PM EDT
Astronomical Twilight 6:18 AM EDT 9:01 PM EDT
Moon 4:55 AM EDT (3/14) 2:35 PM EDT (3/14)
Length of Visible Light 12h 44m
Length of Day
11h 53m
Waning Crescent, 25% of the Moon is Illuminated
Mar 14
Waning Crescent
Mar 18
New
Mar 25
First Quarter
Apr 2
Full
Apr 10
Last Quarter

Hourly Weather History & Observations

Time (EDT) Temp. Dew Point Humidity Pressure Visibility Wind Dir Wind Speed Gust Speed Precip Events Conditions
12:54 AM 52.0 °F 43.0 °F 71% 30.16 in 9.0 mi Calm Calm - N/A   Partly Cloudy
1:54 AM 52.0 °F 43.0 °F 71% 30.16 in 8.0 mi Calm Calm - N/A   Clear
2:54 AM 50.0 °F 43.0 °F 77% 30.15 in 7.0 mi Calm Calm - N/A   Clear
3:54 AM 48.9 °F 43.0 °F 80% 30.14 in 7.0 mi Calm Calm - N/A   Clear
4:54 AM 50.0 °F 42.1 °F 74% 30.13 in 7.0 mi Calm Calm - N/A   Mostly Cloudy
5:54 AM 48.9 °F 43.0 °F 80% 30.13 in 8.0 mi Calm Calm - N/A   Partly Cloudy
6:54 AM 48.9 °F 43.0 °F 80% 30.15 in 7.0 mi West 3.5 mph - N/A   Overcast
7:54 AM 48.2 °F 44.6 °F 87% 30.19 in 6.0 mi ENE 3.5 mph - N/A   Overcast
8:54 AM 51.1 °F 46.0 °F 83% 30.17 in 5.0 mi Calm Calm - N/A   Haze
9:54 AM 61.0 °F 48.0 °F 62% 30.16 in 8.0 mi Calm Calm - N/A   Scattered Clouds
10:54 AM 64.9 °F 46.9 °F 52% 30.15 in 10.0 mi Calm Calm - N/A   Partly Cloudy
11:54 AM 69.1 °F 46.0 °F 44% 30.13 in 10.0 mi Calm Calm - N/A   Clear
12:54 PM 71.1 °F 45.0 °F 39% 30.10 in 10.0 mi Calm Calm - N/A   Clear
1:54 PM 75.0 °F 45.0 °F 34% 30.07 in 10.0 mi Variable 4.6 mph - N/A   Mostly Cloudy
2:54 PM 73.9 °F 45.0 °F 35% 30.05 in 10.0 mi South 10.4 mph - N/A   Overcast
3:54 PM 73.0 °F 39.9 °F 30% 30.04 in 10.0 mi SSW 20.7 mph 28.8 mph N/A   Mostly Cloudy
4:54 PM 73.9 °F 39.0 °F 28% 30.02 in 10.0 mi SSW 15.0 mph 21.9 mph N/A   Mostly Cloudy
5:54 PM 73.0 °F 39.0 °F 29% 30.01 in 10.0 mi SSW 15.0 mph - N/A   Overcast
6:54 PM 69.1 °F 42.1 °F 38% 30.02 in 10.0 mi South 13.8 mph 19.6 mph N/A   Mostly Cloudy
7:54 PM 66.0 °F 42.1 °F 42% 30.04 in 10.0 mi South 8.1 mph - N/A   Clear
8:54 PM 64.0 °F 43.0 °F 46% 30.05 in 10.0 mi South 9.2 mph 18.4 mph N/A   Partly Cloudy
9:54 PM 61.0 °F 44.1 °F 54% 30.06 in 10.0 mi Calm Calm - N/A   Mostly Cloudy
10:54 PM 60.1 °F 45.0 °F 57% 30.07 in 10.0 mi Calm Calm - N/A   Mostly Cloudy
11:54 PM 57.9 °F 45.0 °F 62% 30.05 in 10.0 mi Calm Calm - N/A   Clear